CW4352 Weather Reports


Display with metric or nautical units.
time (UTC)temp
F
wind
direction
speed
MPH
gust
MPH
rain 1hr
in
rain 24hr
in
rain mn
in
humidity
%
barometer
mb
20260901221704 73 316 0.0 0.0 0.00 0.01 0.00 84 1013.1
20260901221204 73 316 0.0 0.0 0.00 0.01 0.00 84 1013.1
20260901220705 73 316 0.0 1.0 0.00 0.01 0.00 84 1013.1
20260901213204 74 316 0.0 3.0 0.00 0.01 0.01 84 1013.0
20260901211704 74 316 1.0 3.0 0.00 0.01 0.01 83 1013.0
20260901211204 74 316 1.0 2.0 0.00 0.01 0.01 83 1013.0
20260901210204 74 316 1.0 3.0 0.00 0.01 0.01 83 1012.9
20260901203204 75 316 1.0 3.0 0.00 0.01 0.01 76 1012.8
20260901201204 76 316 0.0 0.0 0.00 0.01 0.01 73 1012.6
20260901194704 77 316 0.0 1.0 0.00 0.01 0.01 72 1012.6
20260901193706 78 316 1.0 2.0 0.00 0.01 0.01 67 1012.6
20260901190704 80 39 1.0 2.0 0.00 0.01 0.01 59 1011.9
20260901184704 80 39 1.0 3.0 0.00 0.01 0.01 55 1011.9
20260901181704 81 40 1.0 2.0 0.01 0.01 0.01 55 1011.1
20260901180204 82 42 1.0 3.0 0.01 0.01 0.01 55 1011.1
20260901174204 83 43 1.0 2.0 0.01 0.01 0.01 56 1011.1
20260901173704 83 45 0.0 1.0 0.01 0.01 0.01 57 1011.1
20260901173203 83 45 0.0 7.0 0.01 0.01 0.01 57 1011.2
20260901170704 84 43 1.0 5.0 0.00 0.00 0.00 52 1011.1
20260901170204 85 46 2.0 5.0 0.00 0.00 0.00 51 1011.1
20260901164704 86 89 1.0 5.0 0.00 0.00 0.00 49 1010.8
20260901164203 86 44 1.0 3.0 0.00 0.00 0.00 49 1010.8
20260901161204 87 32 2.0 3.0 0.00 0.00 0.00 42 1011.1
20260901160203 88 46 1.0 12.0 0.00 0.00 0.00 42 1011.1
20260901154203 88 17 2.0 5.0 0.00 0.00 0.00 44 1011.1
20260901151704 89 20 2.0 8.0 0.00 0.00 0.00 41 1011.1
20260901150203 89 8 2.0 5.0 0.00 0.00 0.00 39 1011.2
20260901143204 89 42 1.0 8.0 0.00 0.00 0.00 39 1011.6
20260901141204 89 34 1.0 3.0 0.00 0.00 0.00 37 1011.6
20260901140704 89 28 1.0 3.0 0.00 0.00 0.00 37 1011.6
20260901140204 89 33 1.0 3.0 0.00 0.00 0.00 39 1011.8
20260901134204 90 32 1.0 3.0 0.00 0.00 0.00 38 1011.8
20260901133704 90 31 2.0 3.0 0.00 0.00 0.00 38 1011.8
20260901133204 90 35 2.0 6.0 0.00 0.00 0.00 37 1011.8
20260901131204 89 28 0.0 3.0 0.00 0.00 0.00 38 1012.1
20260901130203 89 12 3.0 7.0 0.00 0.00 0.00 40 1012.1
20260901124704 88 45 1.0 5.0 0.00 0.00 0.00 44 1012.1
20260901124203 88 351 1.0 3.0 0.00 0.00 0.00 38 1012.1
20260901121203 87 26 2.0 5.0 0.00 0.00 0.00 41 1012.5
20260901120704 86 47 2.0 3.0 0.00 0.00 0.00 41 1012.5
20260901114204 86 338 2.0 5.0 0.00 0.00 0.00 43 1012.5
20260901111704 85 34 0.0 3.0 0.00 0.00 0.00 45 1012.6
20260901111204 85 34 2.0 3.0 0.00 0.00 0.00 46 1012.7
20260901110703 85 30 2.0 5.0 0.00 0.00 0.00 47 1012.7
20260901110204 84 355 2.0 9.0 0.00 0.00 0.00 48 1012.7
20260901104204 83 16 2.0 3.0 0.00 0.00 0.00 49 1012.7
20260901101706 82 355 1.0 3.0 0.00 0.00 0.00 55 1012.9
20260901100206 82 28 2.0 7.0 0.00 0.00 0.00 55 1012.9
20260901094704 81 12 2.0 6.0 0.00 0.00 0.00 56 1012.9
20260901093703 81 21 3.0 6.0 0.00 0.00 0.00 57 1012.9
20260901091704 81 4 3.0 6.0 0.00 0.00 0.00 57 1012.9
20260901091204 81 5 2.0 5.0 0.00 0.00 0.00 57 1012.9
20260901090704 81 331 3.0 5.0 0.00 0.00 0.00 56 1012.9
20260901090204 81 341 3.0 8.0 0.00 0.00 0.00 54 1012.9
20260901084704 80 316 2.0 6.0 0.00 0.00 0.00 54 1012.2
20260901084203 80 333 2.0 6.0 0.00 0.00 0.00 54 1012.2
20260901081204 80 349 3.0 6.0 0.00 0.00 0.00 55 1012.2
20260901080203 80 9 1.0 6.0 0.00 0.00 0.00 55 1012.2
20260901074203 79 352 0.0 3.0 0.00 0.00 0.00 54 1012.2
20260901073704 79 345 2.0 3.0 0.00 0.00 0.00 54 1012.2
20260901073204 79 345 2.0 3.0 0.00 0.00 0.00 53 1012.2
20260901071203 79 325 1.0 3.0 0.00 0.00 0.00 51 1012.1
20260901070704 78 321 1.0 2.0 0.00 0.00 0.00 52 1012.1
20260901070203 78 321 0.0 1.0 0.00 0.00 0.00 50 1012.1
20260901064704 76 321 1.0 3.0 0.00 0.00 0.00 52 1012.1
20260901064203 75 321 0.0 1.0 0.00 0.00 0.00 54 1012.1
20260901063203 74 321 0.0 2.0 0.00 0.00 0.00 56 1012.1
20260901061703 73 321 0.0 1.0 0.00 0.00 0.00 58 1011.8
20260901053704 70 321 0.0 0.0 0.00 0.00 0.00 62 1011.8
20260901051703 70 321 1.0 3.0 0.00 0.00 0.00 62 1011.5
20260901050703 69 321 2.0 3.0 0.00 0.00 0.00 62 1011.5
20260901050203 69 321 1.0 3.0 0.00 0.00 0.00 62 1011.5
20260901041703 70 321 1.0 2.0 0.00 0.00 0.00 61 1011.5
20260901040203 71 321 0.0 2.0 0.00 0.00 0.00 59 1011.5
20260901034703 71 321 0.0 1.0 0.00 0.00 0.00 58 1011.5
20260901024703 70 291 1.0 2.0 0.00 0.00 0.00 60 1011.0
20260901023203 71 291 0.0 1.0 0.00 0.00 0.00 59 1011.0
20260901021703 71 291 0.0 1.0 0.00 0.00 0.00 59 1010.8
20260901021203 71 291 0.0 1.0 0.00 0.00 0.00 59 1010.8
20260901014704 71 291 1.0 3.0 0.00 0.00 0.00 58 1010.7
20260901013703 72 291 2.0 3.0 0.00 0.00 0.00 56 1010.1
20260901011703 74 291 2.0 3.0 0.00 0.00 0.00 51 1010.1
20260901011203 74 291 1.0 2.0 0.00 0.00 0.00 51 1010.1
20260901010703 75 291 1.0 3.0 0.00 0.00 0.00 51 1010.1
20260901010203 75 291 2.0 3.0 0.00 0.00 0.00 50 1010.1
20260901004204 75 291 2.0 3.0 0.00 0.00 0.00 50 1010.0
20260901000204 73 291 0.0 3.0 0.00 0.00 0.00 56 1010.0
20260831234203 72 291 1.0 2.0 0.00 0.00 0.00 59 1010.1
20260831233703 72 291 0.0 2.0 0.00 0.00 0.00 60 1010.1
20260831233203 72 291 0.0 2.0 0.00 0.00 0.00 60 1010.1
20260831231703 74 291 1.0 2.0 0.00 0.00 0.00 57 1010.1
20260831231203 75 291 1.0 2.0 0.00 0.00 0.00 56 1010.0
20260831224704 76 291 0.0 2.0 0.00 0.00 0.00 52 1009.5
20260831223203 77 291 1.0 3.0 0.00 0.00 0.00 50 1009.5